Time,TemperatureF,DewpointF,PressureIn,WindDirection,WindDirectionDegrees,WindSpeedMPH,WindSpeedGustMPH,Humidity,HourlyPrecipIn,Conditions,Clouds,dailyrainin,SoftwareType,DateUTC
2013-02-02 00:00:00,20.2,5.4,30.10,NW,315,5.0,5.0,52,0.00,,CLR,0.00,VWS V14.00,2013-02-02 05:00:00,
2013-02-02 00:01:00,20.2,5.4,30.10,West,281,3.0,6.0,52,0.00,,CLR,0.00,VWS V14.00,2013-02-02 05:01:00,
2013-02-02 00:06:00,20.0,5.2,30.10,WNW,291,3.0,6.0,52,0.00,,CLR,0.00,VWS V14.00,2013-02-02 05:06:00,
2013-02-02 00:11:00,20.0,5.6,30.10,WNW,284,3.0,5.0,53,0.00,,CLR,0.00,VWS V14.00,2013-02-02 05:11:00,
2013-02-02 00:16:00,19.9,5.5,30.10,SSW,192,2.0,8.0,53,0.00,,CLR,0.00,VWS V14.00,2013-02-02 05:16:00,
2013-02-02 00:21:00,19.9,5.5,30.10,WSW,257,2.0,12.0,53,0.00,,CLR,0.00,VWS V14.00,2013-02-02 05:21:00,
2013-02-02 00:28:00,19.9,5.9,30.10,West,275,3.0,4.0,54,0.00,,,0.00,VWS V14.00,2013-02-02 05:28:00,
2013-02-02 00:33:00,19.7,5.8,30.11,WNW,299,4.0,4.0,54,0.00,,CLR,0.00,VWS V14.00,2013-02-02 05:33:00,
2013-02-02 00:38:00,19.7,6.2,30.11,NW,307,2.0,5.0,55,0.00,,CLR,0.00,VWS V14.00,2013-02-02 05:38:00,
2013-02-02 00:43:00,19.5,6.0,30.11,WSW,238,7.0,7.0,55,0.00,,CLR,0.00,VWS V14.00,2013-02-02 05:43:00,
2013-02-02 00:48:00,19.5,6.0,30.11,SW,214,2.0,5.0,55,0.00,,CLR,0.00,VWS V14.00,2013-02-02 05:48:00,
2013-02-02 00:53:00,19.5,6.0,30.11,West,272,5.0,7.0,55,0.00,,CLR,0.00,VWS V14.00,2013-02-02 05:53:00,
2013-02-02 00:58:00,19.5,6.0,30.11,West,266,4.0,8.0,55,0.00,,CLR,0.00,VWS V14.00,2013-02-02 05:58:00,
2013-02-02 01:03:00,19.5,6.0,30.11,South,188,3.0,7.0,55,0.00,,CLR,0.00,VWS V14.00,2013-02-02 06:03:00,
2013-02-02 01:08:00,19.4,6.3,30.11,WSW,252,6.0,11.0,56,0.00,,CLR,0.00,VWS V14.00,2013-02-02 06:08:00,
2013-02-02 01:13:00,19.4,6.3,30.11,WSW,257,4.0,5.0,56,0.00,,CLR,0.00,VWS V14.00,2013-02-02 06:13:00,
2013-02-02 01:18:00,19.4,6.3,30.11,WSW,258,1.0,6.0,56,0.00,,CLR,0.00,VWS V14.00,2013-02-02 06:18:00,
2013-02-02 01:23:00,19.2,6.1,30.11,WNW,284,3.0,6.0,56,0.00,,CLR,0.00,VWS V14.00,2013-02-02 06:23:00,
2013-02-02 01:28:00,19.2,6.1,30.11,WNW,290,3.0,3.0,56,0.00,,CLR,0.00,VWS V14.00,2013-02-02 06:28:00,
2013-02-02 01:33:00,19.2,6.1,30.12,West,279,5.0,5.0,56,0.00,,CLR,0.00,VWS V14.00,2013-02-02 06:33:00,
2013-02-02 01:38:00,19.2,6.1,30.12,North,351,1.0,2.0,56,0.00,,CLR,0.00,VWS V14.00,2013-02-02 06:38:00,
2013-02-02 01:43:00,19.1,6.0,30.12,West,262,2.0,5.0,56,0.00,,CLR,0.00,VWS V14.00,2013-02-02 06:43:00,
2013-02-02 01:48:00,19.1,6.0,30.12,WNW,291,4.0,5.0,56,0.00,,CLR,0.00,VWS V14.00,2013-02-02 06:48:00,
2013-02-02 01:53:00,19.1,6.0,30.12,West,261,1.0,5.0,56,0.00,,CLR,0.00,VWS V14.00,2013-02-02 06:53:00,
2013-02-02 01:58:00,18.9,5.8,30.12,West,267,3.0,4.0,56,0.00,,CLR,0.00,VWS V14.00,2013-02-02 06:58:00,
2013-02-02 02:03:00,18.9,5.8,30.13,SSW,211,2.0,3.0,56,0.00,,CLR,0.00,VWS V14.00,2013-02-02 07:03:00,
2013-02-02 02:08:00,18.9,5.8,30.13,WNW,283,3.0,12.0,56,0.00,,CLR,0.00,VWS V14.00,2013-02-02 07:08:00,
2013-02-02 02:13:00,18.9,5.8,30.13,SW,227,3.0,5.0,56,0.00,,CLR,0.00,VWS V14.00,2013-02-02 07:13:00,
2013-02-02 02:18:00,18.9,5.8,30.13,WNW,290,5.0,5.0,56,0.00,,CLR,0.00,VWS V14.00,2013-02-02 07:18:00,
2013-02-02 02:23:00,18.9,5.8,30.13,WSW,257,3.0,5.0,56,0.00,,CLR,0.00,VWS V14.00,2013-02-02 07:23:00,
2013-02-02 02:28:00,18.9,6.2,30.13,WNW,282,9.0,11.0,57,0.00,,CLR,0.00,VWS V14.00,2013-02-02 07:28:00,
2013-02-02 02:33:00,18.9,6.2,30.13,WNW,302,7.0,7.0,57,0.00,,CLR,0.00,VWS V14.00,2013-02-02 07:33:00,
2013-02-02 02:38:00,18.9,6.2,30.13,West,271,3.0,4.0,57,0.00,,CLR,0.00,VWS V14.00,2013-02-02 07:38:00,
2013-02-02 02:43:00,18.8,6.1,30.13,WNW,286,2.0,3.0,57,0.00,,CLR,0.00,VWS V14.00,2013-02-02 07:43:00,
2013-02-02 02:48:00,18.6,6.3,30.14,WSW,252,2.0,4.0,58,0.00,,CLR,0.00,VWS V14.00,2013-02-02 07:48:00,
2013-02-02 02:53:00,18.6,6.3,30.14,WNW,297,10.0,10.0,58,0.00,,CLR,0.00,VWS V14.00,2013-02-02 07:53:00,
2013-02-02 02:58:00,18.6,6.7,30.14,WNW,282,4.0,4.0,59,0.00,,CLR,0.00,VWS V14.00,2013-02-02 07:58:00,
2013-02-02 03:05:00,18.6,6.7,30.14,WSW,251,5.0,6.0,59,0.00,,CLR,0.00,VWS V14.00,2013-02-02 08:05:00,
2013-02-02 03:10:00,18.4,6.8,30.14,West,259,4.0,12.0,60,0.00,,CLR,0.00,VWS V14.00,2013-02-02 08:10:00,
2013-02-02 03:15:00,18.6,7.0,30.14,West,261,2.0,6.0,60,0.00,,CLR,0.00,VWS V14.00,2013-02-02 08:15:00,
2013-02-02 03:20:00,18.6,7.0,30.14,WNW,299,3.0,5.0,60,0.00,,CLR,0.00,VWS V14.00,2013-02-02 08:20:00,
2013-02-02 03:25:00,18.6,7.0,30.14,WSW,250,1.0,3.0,60,0.00,,CLR,0.00,VWS V14.00,2013-02-02 08:25:00,
2013-02-02 03:30:00,18.4,6.8,30.14,West,261,0.0,4.0,60,0.00,,CLR,0.00,VWS V14.00,2013-02-02 08:30:00,
2013-02-02 03:35:00,18.4,6.8,30.14,SW,223,3.0,6.0,60,0.00,,CLR,0.00,VWS V14.00,2013-02-02 08:35:00,
2013-02-02 03:40:00,18.4,6.8,30.14,West,280,1.0,1.0,60,0.00,,CLR,0.00,VWS V14.00,2013-02-02 08:40:00,
2013-02-02 03:46:00,18.3,6.8,30.15,NW,305,2.0,5.0,60,0.00,,CLR,0.00,VWS V14.00,2013-02-02 08:46:00,
2013-02-02 03:51:00,18.3,6.8,30.15,WNW,288,4.0,5.0,60,0.00,,CLR,0.00,VWS V14.00,2013-02-02 08:51:00,
2013-02-02 03:56:00,18.1,6.6,30.15,WNW,288,2.0,4.0,60,0.00,,CLR,0.00,VWS V14.00,2013-02-02 08:56:00,
2013-02-02 04:01:00,18.1,6.6,30.15,NW,306,1.0,1.0,60,0.00,,CLR,0.00,VWS V14.00,2013-02-02 09:01:00,
2013-02-02 04:06:00,18.1,6.9,30.15,WNW,294,4.0,5.0,61,0.00,,CLR,0.00,VWS V14.00,2013-02-02 09:06:00,
2013-02-02 04:11:00,18.0,6.8,30.15,NW,309,0.0,2.0,61,0.00,,CLR,0.00,VWS V14.00,2013-02-02 09:11:00,
2013-02-02 04:16:00,18.0,6.8,30.15,WSW,256,4.0,5.0,61,0.00,,CLR,0.00,VWS V14.00,2013-02-02 09:16:00,
2013-02-02 04:21:00,18.0,6.8,30.15,NW,305,3.0,9.0,61,0.00,,CLR,0.00,VWS V14.00,2013-02-02 09:21:00,
2013-02-02 04:26:00,18.0,6.8,30.15,WNW,290,2.0,2.0,61,0.00,,CLR,0.00,VWS V14.00,2013-02-02 09:26:00,
2013-02-02 04:31:00,18.0,6.8,30.15,West,271,3.0,10.0,61,0.00,,CLR,0.00,VWS V14.00,2013-02-02 09:31:00,
2013-02-02 04:36:00,18.0,6.8,30.15,WNW,287,4.0,6.0,61,0.00,,CLR,0.00,VWS V14.00,2013-02-02 09:36:00,
2013-02-02 04:41:00,17.8,6.6,30.15,West,262,3.0,3.0,61,0.00,,CLR,0.00,VWS V14.00,2013-02-02 09:41:00,
2013-02-02 04:46:00,17.8,7.0,30.16,WSW,254,0.0,2.0,62,0.00,,CLR,0.00,VWS V14.00,2013-02-02 09:46:00,
2013-02-02 04:51:00,17.8,7.0,30.16,WSW,254,1.0,2.0,62,0.00,,CLR,0.00,VWS V14.00,2013-02-02 09:51:00,
2013-02-02 04:56:00,17.8,7.0,30.16,West,281,0.0,0.0,62,0.00,,CLR,0.00,VWS V14.00,2013-02-02 09:56:00,
2013-02-02 05:01:00,17.8,7.0,30.16,WNW,287,0.0,2.0,62,0.00,,CLR,0.00,VWS V14.00,2013-02-02 10:01:00,
2013-02-02 05:06:00,17.7,6.9,30.16,WNW,287,0.0,2.0,62,0.00,,CLR,0.00,VWS V14.00,2013-02-02 10:06:00,
2013-02-02 05:11:00,17.7,7.3,30.16,West,278,4.0,5.0,63,0.00,,CLR,0.00,VWS V14.00,2013-02-02 10:11:00,
2013-02-02 05:16:00,17.7,7.3,30.17,West,278,0.0,2.0,63,0.00,,CLR,0.00,VWS V14.00,2013-02-02 10:16:00,
2013-02-02 05:21:00,17.7,7.3,30.17,West,278,1.0,3.0,63,0.00,,CLR,0.00,VWS V14.00,2013-02-02 10:21:00,
2013-02-02 05:26:00,17.5,7.4,30.17,West,278,0.0,2.0,64,0.00,,CLR,0.00,VWS V14.00,2013-02-02 10:26:00,
2013-02-02 05:31:00,17.5,7.4,30.16,West,281,0.0,2.0,64,0.00,,CLR,0.00,VWS V14.00,2013-02-02 10:31:00,
2013-02-02 05:36:00,17.5,7.4,30.16,WNW,296,1.0,5.0,64,0.00,,CLR,0.00,VWS V14.00,2013-02-02 10:36:00,
2013-02-02 05:41:00,17.5,7.4,30.16,WNW,296,0.0,0.0,64,0.00,,CLR,0.00,VWS V14.00,2013-02-02 10:41:00,
2013-02-02 05:46:00,17.5,7.4,30.16,WNW,296,0.0,0.0,64,0.00,,CLR,0.00,VWS V14.00,2013-02-02 10:46:00,
2013-02-02 05:51:00,17.3,7.2,30.16,West,275,2.0,4.0,64,0.00,,CLR,0.00,VWS V14.00,2013-02-02 10:51:00,
2013-02-02 05:56:00,17.3,7.6,30.16,West,265,3.0,6.0,65,0.00,,CLR,0.00,VWS V14.00,2013-02-02 10:56:00,
2013-02-02 06:01:00,17.5,7.8,30.16,West,263,0.0,3.0,65,0.00,,CLR,0.00,VWS V14.00,2013-02-02 11:01:00,
2013-02-02 06:06:00,17.5,7.8,30.16,West,266,0.0,0.0,65,0.00,,CLR,0.00,VWS V14.00,2013-02-02 11:06:00,
2013-02-02 06:11:00,17.3,7.6,30.16,NW,306,5.0,5.0,65,0.00,,CLR,0.00,VWS V14.00,2013-02-02 11:11:00,
2013-02-02 06:16:00,17.3,7.6,30.17,NW,306,3.0,3.0,65,0.00,,CLR,0.00,VWS V14.00,2013-02-02 11:16:00,
2013-02-02 06:21:00,17.3,7.6,30.17,West,279,1.0,3.0,65,0.00,,CLR,0.00,VWS V14.00,2013-02-02 11:21:00,
2013-02-02 06:26:00,17.2,7.8,30.17,WNW,283,3.0,4.0,66,0.00,,CLR,0.00,VWS V14.00,2013-02-02 11:26:00,
2013-02-02 06:31:00,17.2,7.8,30.18,WNW,288,2.0,6.0,66,0.00,,CLR,0.00,VWS V14.00,2013-02-02 11:31:00,
2013-02-02 06:36:00,17.2,7.8,30.18,WNW,283,4.0,5.0,66,0.00,,CLR,0.00,VWS V14.00,2013-02-02 11:36:00,
2013-02-02 06:41:00,17.2,7.8,30.18,West,259,2.0,4.0,66,0.00,,CLR,0.00,VWS V14.00,2013-02-02 11:41:00,
2013-02-02 06:46:00,17.0,7.6,30.18,West,271,1.0,3.0,66,0.00,,CLR,0.00,VWS V14.00,2013-02-02 11:46:00,
2013-02-02 06:51:00,16.9,7.5,30.18,West,269,3.0,5.0,66,0.00,,CLR,0.00,VWS V14.00,2013-02-02 11:51:00,
2013-02-02 06:56:00,16.9,7.5,30.18,WNW,289,3.0,3.0,66,0.00,,CLR,0.00,VWS V14.00,2013-02-02 11:56:00,
2013-02-02 07:01:00,16.9,7.5,30.18,West,274,0.0,1.0,66,0.00,,CLR,0.00,VWS V14.00,2013-02-02 12:01:00,
2013-02-02 07:06:00,16.9,7.5,30.18,West,275,1.0,4.0,66,0.00,,CLR,0.00,VWS V14.00,2013-02-02 12:06:00,
2013-02-02 07:11:00,16.7,7.3,30.18,West,277,2.0,3.0,66,0.00,,CLR,0.00,VWS V14.00,2013-02-02 12:11:00,
2013-02-02 07:16:00,16.7,7.3,30.18,WNW,290,1.0,3.0,66,0.00,,CLR,0.00,VWS V14.00,2013-02-02 12:16:00,
2013-02-02 07:21:00,16.7,7.3,30.18,West,280,2.0,3.0,66,0.00,,CLR,0.00,VWS V14.00,2013-02-02 12:21:00,
2013-02-02 07:26:00,16.5,7.1,30.18,West,280,2.0,3.0,66,0.00,,CLR,0.00,VWS V14.00,2013-02-02 12:26:00,
2013-02-02 07:31:00,16.5,7.1,30.19,West,276,1.0,2.0,66,0.00,,CLR,0.00,VWS V14.00,2013-02-02 12:31:00,
2013-02-02 07:36:00,16.5,7.1,30.19,West,276,1.0,2.0,66,0.00,,CLR,0.00,VWS V14.00,2013-02-02 12:36:00,
2013-02-02 07:41:00,16.5,7.1,30.19,West,276,0.0,2.0,66,0.00,,CLR,0.00,VWS V14.00,2013-02-02 12:41:00,
2013-02-02 07:46:00,16.5,7.1,30.19,West,276,0.0,0.0,66,0.00,,CLR,0.00,VWS V14.00,2013-02-02 12:46:00,
2013-02-02 07:51:00,16.5,7.1,30.19,West,276,0.0,2.0,66,0.00,,CLR,0.00,VWS V14.00,2013-02-02 12:51:00,
2013-02-02 07:56:00,16.5,7.1,30.19,WNW,288,0.0,2.0,66,0.00,,CLR,0.00,VWS V14.00,2013-02-02 12:56:00,
2013-02-02 08:01:00,16.5,7.1,30.20,WNW,288,0.0,2.0,66,0.00,,CLR,0.00,VWS V14.00,2013-02-02 13:01:00,
2013-02-02 08:06:00,16.5,7.1,30.20,WNW,288,0.0,0.0,66,0.00,,CLR,0.00,VWS V14.00,2013-02-02 13:06:00,
2013-02-02 08:11:00,16.5,7.1,30.20,SW,235,1.0,2.0,66,0.00,,CLR,0.00,VWS V14.00,2013-02-02 13:11:00,
2013-02-02 08:16:00,16.7,7.3,30.20,WNW,284,1.0,5.0,66,0.00,,CLR,0.00,VWS V14.00,2013-02-02 13:16:00,
2013-02-02 08:21:00,16.9,7.2,30.20,WNW,303,1.0,1.0,65,0.00,,CLR,0.00,VWS V14.00,2013-02-02 13:21:00,
2013-02-02 08:26:00,17.2,7.1,30.20,West,274,2.0,6.0,64,0.00,,CLR,0.00,VWS V14.00,2013-02-02 13:26:00,
2013-02-02 08:31:00,17.3,6.9,30.20,WSW,241,1.0,3.0,63,0.00,,CLR,0.00,VWS V14.00,2013-02-02 13:31:00,
2013-02-02 08:36:00,17.3,6.9,30.20,West,280,1.0,5.0,63,0.00,,CLR,0.00,VWS V14.00,2013-02-02 13:36:00,
2013-02-02 08:41:00,17.5,6.7,30.20,SW,223,5.0,5.0,62,0.00,,CLR,0.00,VWS V14.00,2013-02-02 13:41:00,
2013-02-02 08:46:00,17.8,7.0,30.20,SW,224,2.0,3.0,62,0.00,,CLR,0.00,VWS V14.00,2013-02-02 13:46:00,
2013-02-02 08:51:00,17.8,6.3,30.20,WSW,254,2.0,4.0,60,0.00,,CLR,0.00,VWS V14.00,2013-02-02 13:51:00,
2013-02-02 08:56:00,18.3,6.8,30.20,WSW,254,1.0,1.0,60,0.00,,CLR,0.00,VWS V14.00,2013-02-02 13:56:00,
2013-02-02 09:02:00,18.4,6.5,30.20,WSW,249,6.0,6.0,59,0.00,,CLR,0.00,VWS V14.00,2013-02-02 14:02:00,
2013-02-02 09:07:00,18.6,6.7,30.20,SSW,210,3.0,3.0,59,0.00,,CLR,0.00,VWS V14.00,2013-02-02 14:07:00,
2013-02-02 09:12:00,18.6,6.3,30.20,WSW,255,5.0,6.0,58,0.00,,CLR,0.00,VWS V14.00,2013-02-02 14:12:00,
2013-02-02 09:17:00,18.8,6.5,30.20,WSW,252,2.0,3.0,58,0.00,,CLR,0.00,VWS V14.00,2013-02-02 14:17:00,
2013-02-02 09:22:00,18.9,6.6,30.20,West,280,1.0,2.0,58,0.00,,CLR,0.00,VWS V14.00,2013-02-02 14:22:00,
2013-02-02 09:27:00,18.9,5.8,30.20,WNW,290,2.0,5.0,56,0.00,,CLR,0.00,VWS V14.00,2013-02-02 14:27:00,
2013-02-02 09:32:00,19.5,6.8,30.19,WNW,299,0.0,1.0,57,0.00,,CLR,0.00,VWS V14.00,2013-02-02 14:32:00,
2013-02-02 09:37:00,19.9,6.8,30.19,WNW,290,3.0,6.0,56,0.00,,CLR,0.00,VWS V14.00,2013-02-02 14:37:00,
2013-02-02 09:42:00,19.9,6.3,30.19,WNW,297,3.0,6.0,55,0.00,,CLR,0.00,VWS V14.00,2013-02-02 14:42:00,
2013-02-02 09:47:00,20.0,6.4,30.18,West,281,0.0,3.0,55,0.00,,CLR,0.00,VWS V14.00,2013-02-02 14:47:00,
2013-02-02 09:52:00,20.3,6.3,30.18,West,281,1.0,3.0,54,0.00,,CLR,0.00,VWS V14.00,2013-02-02 14:52:00,
2013-02-02 09:57:00,20.5,6.1,30.18,West,281,1.0,3.0,53,0.00,,CLR,0.00,VWS V14.00,2013-02-02 14:57:00,
2013-02-02 10:02:00,20.8,7.2,30.18,SW,223,0.0,3.0,55,0.00,,CLR,0.00,VWS V14.00,2013-02-02 15:02:00,
2013-02-02 10:07:00,21.4,6.5,30.18,SW,221,1.0,4.0,52,0.00,,CLR,0.00,VWS V14.00,2013-02-02 15:07:00,
2013-02-02 10:12:00,21.3,6.4,30.18,West,259,2.0,5.0,52,0.00,,CLR,0.00,VWS V14.00,2013-02-02 15:12:00,
2013-02-02 10:17:00,21.0,5.7,30.18,West,269,1.0,3.0,51,0.00,,CLR,0.00,VWS V14.00,2013-02-02 15:17:00,
2013-02-02 10:22:00,21.6,6.7,30.18,SSE,158,2.0,2.0,52,0.00,,CLR,0.00,VWS V14.00,2013-02-02 15:22:00,
2013-02-02 10:27:00,22.2,6.4,30.18,SW,216,0.0,2.0,50,0.00,,CLR,0.00,VWS V14.00,2013-02-02 15:27:00,
2013-02-02 10:32:00,22.7,6.9,30.17,SW,228,1.0,3.0,50,0.00,,CLR,0.00,VWS V14.00,2013-02-02 15:32:00,
2013-02-02 10:37:00,22.9,6.6,30.17,SSE,168,1.0,5.0,49,0.00,,CLR,0.00,VWS V14.00,2013-02-02 15:37:00,
2013-02-02 10:42:00,23.5,7.6,30.17,SSE,158,3.0,4.0,50,0.00,,CLR,0.00,VWS V14.00,2013-02-02 15:42:00,
2013-02-02 10:47:00,23.6,7.3,30.16,SE,139,2.0,7.0,49,0.00,,CLR,0.00,VWS V14.00,2013-02-02 15:47:00,
2013-02-02 10:52:00,23.5,6.2,30.16,SSW,196,1.0,4.0,47,0.00,,CLR,0.00,VWS V14.00,2013-02-02 15:52:00,
2013-02-02 10:57:00,24.2,7.3,30.16,SSW,203,1.0,2.0,48,0.00,,CLR,0.00,VWS V14.00,2013-02-02 15:57:00,
2013-02-02 11:02:00,24.2,6.9,30.16,SW,222,1.0,3.0,47,0.00,,CLR,0.00,VWS V14.00,2013-02-02 16:02:00,
2013-02-02 11:07:00,24.8,7.4,30.16,SSE,159,0.0,1.0,47,0.00,,CLR,0.00,VWS V14.00,2013-02-02 16:07:00,
2013-02-02 11:12:00,24.8,6.5,30.16,SE,136,4.0,4.0,45,0.00,,CLR,0.00,VWS V14.00,2013-02-02 16:12:00,
2013-02-02 11:17:00,25.0,6.2,30.15,SW,226,3.0,3.0,44,0.00,,CLR,0.00,VWS V14.00,2013-02-02 16:17:00,
2013-02-02 11:22:00,24.8,6.0,30.15,South,169,3.0,4.0,44,0.00,,CLR,0.00,VWS V14.00,2013-02-02 16:22:00,
2013-02-02 11:27:00,25.3,5.9,30.15,South,190,3.0,4.0,43,0.00,,CLR,0.00,VWS V14.00,2013-02-02 16:27:00,
2013-02-02 11:32:00,25.3,6.4,30.14,SSE,162,4.0,4.0,44,0.00,,CLR,0.00,VWS V14.00,2013-02-02 16:32:00,
2013-02-02 11:37:00,25.8,5.9,30.14,SSW,212,2.0,5.0,42,0.00,,CLR,0.00,VWS V14.00,2013-02-02 16:37:00,
2013-02-02 11:42:00,25.4,5.0,30.14,SSW,209,5.0,7.0,41,0.00,,CLR,0.00,VWS V14.00,2013-02-02 16:42:00,
2013-02-02 11:47:00,25.4,4.5,30.13,ESE,109,2.0,6.0,40,0.00,,CLR,0.00,VWS V14.00,2013-02-02 16:47:00,
2013-02-02 11:52:00,26.4,6.4,30.13,WSW,257,3.0,7.0,42,0.00,,CLR,0.00,VWS V14.00,2013-02-02 16:52:00,
2013-02-02 11:57:00,26.3,4.2,30.13,South,179,1.0,10.0,38,0.00,,CLR,0.00,VWS V14.00,2013-02-02 16:57:00,
2013-02-02 12:02:00,26.4,3.7,30.11,SSE,155,3.0,4.0,37,0.00,,CLR,0.00,VWS V14.00,2013-02-02 17:02:00,
2013-02-02 12:08:00,26.7,3.9,30.11,SE,142,4.0,9.0,37,0.00,,CLR,0.00,VWS V14.00,2013-02-02 17:08:00,
2013-02-02 12:12:00,26.6,2.7,30.11,SSW,204,3.0,9.0,35,0.00,,CLR,0.00,VWS V14.00,2013-02-02 17:12:00,
2013-02-02 12:18:00,26.0,3.3,30.10,SW,229,2.0,7.0,37,0.00,,CLR,0.00,VWS V14.00,2013-02-02 17:18:00,
2013-02-02 12:23:00,26.3,4.2,30.10,SW,224,5.0,7.0,38,0.00,,CLR,0.00,VWS V14.00,2013-02-02 17:23:00,
2013-02-02 12:28:00,26.7,3.3,30.10,SSE,152,5.0,9.0,36,0.00,,CLR,0.00,VWS V14.00,2013-02-02 17:28:00,
2013-02-02 12:33:00,26.9,2.9,30.09,SE,130,3.0,5.0,35,0.00,,CLR,0.00,VWS V14.00,2013-02-02 17:33:00,
2013-02-02 12:38:00,27.0,3.6,30.09,SE,146,4.0,6.0,36,0.00,,CLR,0.00,VWS V14.00,2013-02-02 17:38:00,
2013-02-02 12:43:00,27.0,2.4,30.09,South,181,3.0,5.0,34,0.00,,CLR,0.00,VWS V14.00,2013-02-02 17:43:00,
2013-02-02 12:48:00,27.2,2.6,30.08,South,190,2.0,4.0,34,0.00,,CLR,0.00,VWS V14.00,2013-02-02 17:48:00,
2013-02-02 12:53:00,27.3,2.7,30.08,SSW,195,2.0,11.0,34,0.00,,CLR,0.00,VWS V14.00,2013-02-02 17:53:00,
2013-02-02 12:58:00,28.1,3.4,30.08,WSW,245,1.0,4.0,34,0.00,,CLR,0.00,VWS V14.00,2013-02-02 17:58:00,
2013-02-02 13:03:00,29.0,3.5,30.07,SSE,153,3.0,4.0,33,0.00,,CLR,0.00,VWS V14.00,2013-02-02 18:03:00,
2013-02-02 13:08:00,29.4,3.9,30.07,South,184,3.0,5.0,33,0.00,,CLR,0.00,VWS V14.00,2013-02-02 18:08:00,
2013-02-02 13:13:00,28.2,2.8,30.07,SW,229,0.0,8.0,33,0.00,,CLR,0.00,VWS V14.00,2013-02-02 18:13:00,
2013-02-02 13:18:00,27.9,1.9,30.06,SSE,147,3.0,11.0,32,0.00,,CLR,0.00,VWS V14.00,2013-02-02 18:18:00,
2013-02-02 13:23:00,27.6,3.5,30.06,South,175,3.0,11.0,35,0.00,,CLR,0.00,VWS V14.00,2013-02-02 18:23:00,
2013-02-02 13:28:00,27.5,2.2,30.06,SSE,150,7.0,10.0,33,0.00,,CLR,0.00,VWS V14.00,2013-02-02 18:28:00,
2013-02-02 13:33:00,28.4,3.6,30.05,SW,219,2.0,7.0,34,0.00,,CLR,0.00,VWS V14.00,2013-02-02 18:33:00,
2013-02-02 13:38:00,28.4,3.0,30.05,SW,218,10.0,10.0,33,0.00,,CLR,0.00,VWS V14.00,2013-02-02 18:38:00,
2013-02-02 13:43:00,28.4,3.6,30.05,SW,214,4.0,12.0,34,0.00,,CLR,0.00,VWS V14.00,2013-02-02 18:43:00,
2013-02-02 13:48:00,28.5,3.7,30.05,SW,221,4.0,8.0,34,0.00,,CLR,0.00,VWS V14.00,2013-02-02 18:48:00,
2013-02-02 13:53:00,28.8,3.3,30.05,SW,223,2.0,6.0,33,0.00,,CLR,0.00,VWS V14.00,2013-02-02 18:53:00,
2013-02-02 13:58:00,28.8,2.7,30.05,ESE,120,6.0,7.0,32,0.00,,CLR,0.00,VWS V14.00,2013-02-02 18:58:00,
2013-02-02 14:03:00,28.1,2.0,30.05,SSW,212,2.0,5.0,32,0.00,,CLR,0.00,VWS V14.00,2013-02-02 19:03:00,
2013-02-02 14:08:00,27.9,2.5,30.05,South,172,3.0,5.0,33,0.00,,CLR,0.00,VWS V14.00,2013-02-02 19:08:00,
2013-02-02 14:13:00,28.2,2.8,30.05,WSW,246,1.0,6.0,33,0.00,,CLR,0.00,VWS V14.00,2013-02-02 19:13:00,
2013-02-02 14:18:00,28.2,1.5,30.04,WSW,239,9.0,11.0,31,0.00,,CLR,0.00,VWS V14.00,2013-02-02 19:18:00,
2013-02-02 14:23:00,27.9,1.9,30.04,SW,230,1.0,4.0,32,0.00,,CLR,0.00,VWS V14.00,2013-02-02 19:23:00,
2013-02-02 14:28:00,28.2,1.5,30.04,WSW,252,7.0,11.0,31,0.00,,CLR,0.00,VWS V14.00,2013-02-02 19:28:00,
2013-02-02 14:33:00,28.2,2.1,30.03,SW,227,3.0,3.0,32,0.00,,CLR,0.00,VWS V14.00,2013-02-02 19:33:00,
2013-02-02 14:38:00,28.5,1.0,30.03,WSW,248,8.0,14.0,30,0.00,,CLR,0.00,VWS V14.00,2013-02-02 19:38:00,
2013-02-02 14:43:00,28.2,1.5,30.03,SSE,148,0.0,4.0,31,0.00,,CLR,0.00,VWS V14.00,2013-02-02 19:43:00,
2013-02-02 14:48:00,28.4,1.6,30.03,SSE,165,4.0,6.0,31,0.00,,FEW090,0.00,VWS V14.00,2013-02-02 19:48:00,
2013-02-02 14:53:00,28.1,2.0,30.03,SSE,147,5.0,14.0,32,0.00,,FEW090,0.00,VWS V14.00,2013-02-02 19:53:00,
2013-02-02 14:58:00,28.1,2.0,30.03,SE,139,2.0,6.0,32,0.00,,FEW090,0.00,VWS V14.00,2013-02-02 19:58:00,
2013-02-02 15:03:00,27.9,2.5,30.02,SW,219,4.0,5.0,33,0.00,,FEW090,0.00,VWS V14.00,2013-02-02 20:03:00,
2013-02-02 15:08:00,27.8,3.1,30.02,SSW,204,2.0,7.0,34,0.00,,FEW090,0.00,VWS V14.00,2013-02-02 20:08:00,
2013-02-02 15:13:00,27.8,3.7,30.02,SSE,147,2.0,4.0,35,0.00,,FEW090,0.00,VWS V14.00,2013-02-02 20:13:00,
2013-02-02 15:18:00,27.6,2.9,30.02,SSW,202,2.0,4.0,34,0.00,,FEW090,0.00,VWS V14.00,2013-02-02 20:18:00,
2013-02-02 15:23:00,27.3,2.7,30.02,SSE,163,0.0,7.0,34,0.00,,FEW090,0.00,VWS V14.00,2013-02-02 20:23:00,
2013-02-02 15:28:00,27.3,3.3,30.02,SW,229,3.0,4.0,35,0.00,,FEW090,0.00,VWS V14.00,2013-02-02 20:28:00,
2013-02-02 15:33:00,26.9,2.3,30.02,SW,236,4.0,7.0,34,0.00,,FEW090,0.00,VWS V14.00,2013-02-02 20:33:00,
2013-02-02 15:38:00,26.4,2.5,30.02,WSW,248,3.0,7.0,35,0.00,,FEW090,0.00,VWS V14.00,2013-02-02 20:38:00,
2013-02-02 15:43:00,26.1,2.2,30.02,SSW,204,3.0,10.0,35,0.00,,FEW090,0.00,VWS V14.00,2013-02-02 20:43:00,
2013-02-02 15:48:00,26.0,2.1,30.01,SSE,168,0.0,3.0,35,0.00,,FEW090,0.00,VWS V14.00,2013-02-02 20:48:00,
2013-02-02 15:53:00,25.8,1.9,30.01,West,266,1.0,2.0,35,0.00,,FEW090,0.00,VWS V14.00,2013-02-02 20:53:00,
2013-02-02 15:58:00,25.8,2.5,30.01,WSW,248,2.0,5.0,36,0.00,,FEW090,0.00,VWS V14.00,2013-02-02 20:58:00,
2013-02-02 16:03:00,25.8,2.5,30.01,SSW,201,1.0,4.0,36,0.00,,FEW090,0.00,VWS V14.00,2013-02-02 21:03:00,
2013-02-02 16:08:00,25.7,3.0,30.01,WSW,243,3.0,4.0,37,0.00,,FEW090,0.00,VWS V14.00,2013-02-02 21:08:00,
2013-02-02 16:13:00,25.6,3.5,30.01,SW,222,3.0,6.0,38,0.00,,FEW090,0.00,VWS V14.00,2013-02-02 21:13:00,
2013-02-02 16:18:00,25.3,2.7,30.01,SW,216,4.0,6.0,37,0.00,,FEW075,0.00,VWS V14.00,2013-02-02 21:18:00,
2013-02-02 16:23:00,25.1,2.5,30.01,WSW,247,3.0,7.0,37,0.00,,FEW075,0.00,VWS V14.00,2013-02-02 21:23:00,
2013-02-02 16:28:00,25.3,3.3,30.01,SW,223,2.0,7.0,38,0.00,,FEW075,0.00,VWS V14.00,2013-02-02 21:28:00,
2013-02-02 16:33:00,25.3,3.3,30.02,SW,217,3.0,5.0,38,0.00,,FEW075,0.00,VWS V14.00,2013-02-02 21:33:00,
2013-02-02 16:38:00,25.3,3.3,30.02,SW,221,3.0,4.0,38,0.00,,FEW075,0.00,VWS V14.00,2013-02-02 21:38:00,
2013-02-02 16:44:00,25.3,3.3,30.02,WSW,250,4.0,5.0,38,0.00,,FEW075,0.00,VWS V14.00,2013-02-02 21:44:00,
2013-02-02 16:49:00,25.1,3.1,30.01,West,265,5.0,6.0,38,0.00,,OVC090,0.00,VWS V14.00,2013-02-02 21:49:00,
2013-02-02 16:54:00,25.1,4.2,30.01,WSW,244,3.0,4.0,40,0.00,,OVC090,0.00,VWS V14.00,2013-02-02 21:54:00,
2013-02-02 16:59:00,25.0,4.6,30.01,WSW,242,5.0,9.0,41,0.00,,OVC090,0.00,VWS V14.00,2013-02-02 21:59:00,
2013-02-02 17:04:00,24.8,5.0,30.01,SW,216,7.0,12.0,42,0.00,,OVC090,0.00,VWS V14.00,2013-02-02 22:04:00,
2013-02-02 17:09:00,24.7,5.4,30.01,SW,231,2.0,5.0,43,0.00,,OVC090,0.00,VWS V14.00,2013-02-02 22:09:00,
2013-02-02 17:14:00,24.5,5.2,30.01,SSW,192,2.0,6.0,43,0.00,,OVC090,0.00,VWS V14.00,2013-02-02 22:14:00,
2013-02-02 17:19:00,24.4,5.1,30.01,WSW,252,3.0,10.0,43,0.00,,OVC090,0.00,VWS V14.00,2013-02-02 22:19:00,
2013-02-02 17:24:00,24.2,5.4,30.01,SW,218,1.0,3.0,44,0.00,,OVC090,0.00,VWS V14.00,2013-02-02 22:24:00,
2013-02-02 17:29:00,24.2,5.9,30.01,SW,236,9.0,9.0,45,0.00,,OVC090,0.00,VWS V14.00,2013-02-02 22:29:00,
2013-02-02 17:34:00,24.1,5.8,30.01,SSW,208,4.0,4.0,45,0.00,,OVC090,0.00,VWS V14.00,2013-02-02 22:34:00,
2013-02-02 17:39:00,24.1,6.3,30.01,SSW,196,2.0,4.0,46,0.00,,OVC090,0.00,VWS V14.00,2013-02-02 22:39:00,
2013-02-02 17:44:00,23.9,6.6,30.01,SW,215,2.0,5.0,47,0.00,,OVC090,0.00,VWS V14.00,2013-02-02 22:44:00,
2013-02-02 17:49:00,23.9,7.1,30.01,SW,220,2.0,7.0,48,0.00,,OVC070,0.00,VWS V14.00,2013-02-02 22:49:00,
2013-02-02 17:54:00,23.6,7.7,30.01,West,265,6.0,10.0,50,0.00,,OVC070,0.00,VWS V14.00,2013-02-02 22:54:00,
2013-02-02 17:59:00,23.6,8.6,30.01,SW,229,7.0,9.0,52,0.00,,OVC070,0.00,VWS V14.00,2013-02-02 22:59:00,
2013-02-02 18:04:00,23.5,8.9,30.01,WNW,284,4.0,9.0,53,0.00,,OVC070,0.00,VWS V14.00,2013-02-02 23:04:00,
2013-02-02 18:09:00,23.3,9.1,30.01,SW,226,5.0,11.0,54,0.00,,OVC070,0.00,VWS V14.00,2013-02-02 23:09:00,
2013-02-02 18:14:00,23.3,9.5,30.01,SW,231,3.0,6.0,55,0.00,,OVC070,0.00,VWS V14.00,2013-02-02 23:14:00,
2013-02-02 18:19:00,23.2,9.0,30.02,SW,220,3.0,6.0,54,0.00,,OVC070,0.00,VWS V14.00,2013-02-02 23:19:00,
2013-02-02 18:24:00,23.2,9.4,30.02,SSW,211,3.0,3.0,55,0.00,,OVC070,0.00,VWS V14.00,2013-02-02 23:24:00,
2013-02-02 18:29:00,23.2,9.8,30.02,WSW,252,5.0,7.0,56,0.00,,OVC070,0.00,VWS V14.00,2013-02-02 23:29:00,
2013-02-02 18:34:00,23.0,9.7,30.01,SSW,200,10.0,10.0,56,0.00,,OVC070,0.00,VWS V14.00,2013-02-02 23:34:00,
2013-02-02 18:39:00,23.0,10.1,30.01,WSW,247,2.0,3.0,57,0.00,,OVC070,0.00,VWS V14.00,2013-02-02 23:39:00,
2013-02-02 18:44:00,23.0,10.1,30.01,West,261,3.0,6.0,57,0.00,,OVC070,0.00,VWS V14.00,2013-02-02 23:44:00,
2013-02-02 18:49:00,23.0,10.4,30.02,WSW,254,3.0,4.0,58,0.00,,OVC060,0.00,VWS V14.00,2013-02-02 23:49:00,
2013-02-02 18:54:00,23.0,10.8,30.02,SW,233,6.0,6.0,59,0.00,,OVC060,0.00,VWS V14.00,2013-02-02 23:54:00,
2013-02-02 18:59:00,22.9,11.1,30.02,WSW,256,3.0,6.0,60,0.00,,OVC060,0.00,VWS V14.00,2013-02-02 23:59:00,
2013-02-02 19:04:00,22.9,11.1,30.02,West,269,6.0,7.0,60,0.00,,OVC060,0.00,VWS V14.00,2013-02-03 00:04:00,
2013-02-02 19:09:00,22.9,11.1,30.02,SW,220,2.0,2.0,60,0.00,,OVC060,0.00,VWS V14.00,2013-02-03 00:09:00,
2013-02-02 19:14:00,22.9,11.1,30.02,West,281,1.0,7.0,60,0.00,,OVC060,0.00,VWS V14.00,2013-02-03 00:14:00,
2013-02-02 19:19:00,22.7,11.3,30.02,West,272,2.0,3.0,61,0.00,,OVC060,0.00,VWS V14.00,2013-02-03 00:19:00,
2013-02-02 19:24:00,22.9,11.8,30.02,WSW,255,7.0,10.0,62,0.00,,OVC060,0.00,VWS V14.00,2013-02-03 00:24:00,
2013-02-02 19:29:00,22.5,11.8,30.02,WSW,238,3.0,11.0,63,0.00,,OVC060,0.00,VWS V14.00,2013-02-03 00:29:00,
2013-02-02 19:34:00,22.4,12.4,30.02,West,263,2.0,9.0,65,0.00,,OVC060,0.00,VWS V14.00,2013-02-03 00:34:00,
2013-02-02 19:39:00,22.2,12.6,30.02,SSW,205,3.0,3.0,66,0.00,,OVC060,0.00,VWS V14.00,2013-02-03 00:39:00,
2013-02-02 19:44:00,22.2,12.9,30.02,SW,236,3.0,5.0,67,0.00,,OVC060,0.00,VWS V14.00,2013-02-03 00:44:00,
2013-02-02 19:49:00,21.9,13.0,30.02,WSW,255,3.0,5.0,68,0.00,,OVC046,0.00,VWS V14.00,2013-02-03 00:49:00,
2013-02-02 19:54:00,21.9,13.3,30.02,SW,229,2.0,5.0,69,0.00,,OVC046,0.00,VWS V14.00,2013-02-03 00:54:00,
2013-02-02 19:59:00,21.8,13.5,30.02,West,260,2.0,7.0,70,0.00,,OVC046,0.00,VWS V14.00,2013-02-03 00:59:00,
2013-02-02 20:04:00,21.8,13.9,30.02,SW,228,4.0,4.0,71,0.00,,OVC046,0.00,VWS V14.00,2013-02-03 01:04:00,
2013-02-02 20:09:00,21.6,14.0,30.02,SW,215,5.0,6.0,72,0.00,,OVC046,0.00,VWS V14.00,2013-02-03 01:09:00,
2013-02-02 20:14:00,21.6,14.3,30.02,SW,217,2.0,5.0,73,0.00,,OVC046,0.00,VWS V14.00,2013-02-03 01:14:00,
2013-02-02 20:19:00,21.4,14.4,30.02,SW,234,5.0,7.0,74,0.00,,OVC046,0.00,VWS V14.00,2013-02-03 01:19:00,
2013-02-02 20:24:00,21.1,14.4,30.02,SW,220,3.0,5.0,75,0.00,,OVC046,0.00,VWS V14.00,2013-02-03 01:24:00,
2013-02-02 20:29:00,21.1,14.7,30.02,WSW,246,1.0,4.0,76,0.00,,OVC046,0.00,VWS V14.00,2013-02-03 01:29:00,
2013-02-02 20:34:00,21.1,14.7,30.02,WSW,257,2.0,5.0,76,0.00,,OVC046,0.00,VWS V14.00,2013-02-03 01:34:00,
2013-02-02 20:39:00,21.0,14.9,30.02,WSW,242,1.0,2.0,77,0.00,,OVC046,0.00,VWS V14.00,2013-02-03 01:39:00,
2013-02-02 20:45:00,21.0,15.2,30.02,WNW,285,2.0,5.0,78,0.00,,OVC046,0.00,VWS V14.00,2013-02-03 01:45:00,
2013-02-02 20:50:00,21.0,15.2,30.02,WSW,257,2.0,2.0,78,0.00,,,0.00,VWS V14.00,2013-02-03 01:50:00,
2013-02-02 20:55:00,21.0,15.2,30.02,WSW,243,1.0,3.0,78,0.00,,,0.00,VWS V14.00,2013-02-03 01:55:00,
2013-02-02 21:00:00,21.0,15.2,30.02,SW,224,3.0,3.0,78,0.00,,,0.00,VWS V14.00,2013-02-03 02:00:00,
2013-02-02 21:05:00,20.8,15.0,30.02,West,270,3.0,4.0,78,0.00,,,0.00,VWS V14.00,2013-02-03 02:05:00,
2013-02-02 21:10:00,20.8,15.3,30.02,SW,222,0.0,3.0,79,0.00,,,0.00,VWS V14.00,2013-02-03 02:10:00,
2013-02-02 21:15:00,20.8,15.3,30.02,SW,222,1.0,2.0,79,0.00,,,0.00,VWS V14.00,2013-02-03 02:15:00,
2013-02-02 21:20:00,20.8,15.3,30.02,SW,222,0.0,1.0,79,0.00,,,0.00,VWS V14.00,2013-02-03 02:20:00,
2013-02-02 21:25:00,20.8,15.3,30.02,SW,222,2.0,2.0,79,0.00,,,0.00,VWS V14.00,2013-02-03 02:25:00,
2013-02-02 21:30:00,20.8,15.6,30.02,SW,222,0.0,2.0,80,0.00,,,0.00,VWS V14.00,2013-02-03 02:30:00,
2013-02-02 21:35:00,20.8,15.6,30.02,SW,222,1.0,1.0,80,0.00,,,0.00,VWS V14.00,2013-02-03 02:35:00,
2013-02-02 21:40:00,20.8,15.6,30.02,SW,222,0.0,0.0,80,0.00,,,0.00,VWS V14.00,2013-02-03 02:40:00,
2013-02-02 21:45:00,20.8,15.6,30.02,SW,222,0.0,0.0,80,0.00,,,0.00,VWS V14.00,2013-02-03 02:45:00,
2013-02-02 21:50:00,21.0,16.1,30.02,SW,222,0.0,2.0,81,0.00,,,0.00,VWS V14.00,2013-02-03 02:50:00,
2013-02-02 21:55:00,20.8,15.9,30.02,SW,222,1.0,2.0,81,0.00,,,0.00,VWS V14.00,2013-02-03 02:55:00,
2013-02-02 22:00:00,20.8,15.9,30.02,SW,222,0.0,2.0,81,0.00,,,0.00,VWS V14.00,2013-02-03 03:00:00,
2013-02-02 22:05:00,20.8,15.9,30.02,SW,222,0.0,0.0,81,0.00,,,0.00,VWS V14.00,2013-02-03 03:05:00,
2013-02-02 22:10:00,21.0,16.1,30.02,SW,222,1.0,1.0,81,0.00,,,0.00,VWS V14.00,2013-02-03 03:10:00,
2013-02-02 22:15:00,21.0,16.4,30.01,SW,222,0.0,1.0,82,0.00,,,0.00,VWS V14.00,2013-02-03 03:15:00,
2013-02-02 22:20:00,20.8,16.2,30.01,WNW,284,0.0,0.0,82,0.00,,,0.00,VWS V14.00,2013-02-03 03:20:00,
2013-02-02 22:25:00,20.8,16.2,30.01,WNW,284,0.0,1.0,82,0.00,,,0.00,VWS V14.00,2013-02-03 03:25:00,
2013-02-02 22:30:00,20.8,16.2,30.01,WNW,284,0.0,0.0,82,0.00,,,0.00,VWS V14.00,2013-02-03 03:30:00,
2013-02-02 22:35:00,20.8,16.2,30.01,WNW,284,0.0,0.0,82,0.00,,,0.00,VWS V14.00,2013-02-03 03:35:00,
2013-02-02 22:40:00,20.6,16.0,30.01,WNW,284,2.0,3.0,82,0.00,,,0.00,VWS V14.00,2013-02-03 03:40:00,
2013-02-02 22:45:00,20.6,16.3,30.01,WNW,284,0.0,1.0,83,0.00,,,0.00,VWS V14.00,2013-02-03 03:45:00,
2013-02-02 22:50:00,20.5,16.2,30.01,WNW,284,0.0,0.0,83,0.00,,,0.00,VWS V14.00,2013-02-03 03:50:00,
2013-02-02 22:55:00,20.5,16.2,30.01,WNW,284,0.0,0.0,83,0.00,,,0.00,VWS V14.00,2013-02-03 03:55:00,
2013-02-02 23:00:00,20.5,16.2,30.01,WNW,284,0.0,0.0,83,0.00,,,0.00,VWS V14.00,2013-02-03 04:00:00,
2013-02-02 23:05:00,20.5,16.2,30.01,WNW,284,0.0,3.0,83,0.00,,,0.00,VWS V14.00,2013-02-03 04:05:00,
2013-02-02 23:10:00,20.3,16.0,30.01,WNW,284,1.0,1.0,83,0.00,,,0.00,VWS V14.00,2013-02-03 04:10:00,
2013-02-02 23:15:00,20.3,16.0,30.00,WNW,284,0.0,0.0,83,0.00,,,0.00,VWS V14.00,2013-02-03 04:15:00,
2013-02-02 23:20:00,20.3,16.0,30.00,WNW,284,0.0,0.0,83,0.00,,,0.00,VWS V14.00,2013-02-03 04:20:00,
2013-02-02 23:25:00,20.3,16.0,30.00,WNW,284,0.0,0.0,83,0.00,,,0.00,VWS V14.00,2013-02-03 04:25:00,
2013-02-02 23:30:00,20.3,16.0,30.00,WNW,284,0.0,0.0,83,0.00,,,0.00,VWS V14.00,2013-02-03 04:30:00,
2013-02-02 23:35:00,20.3,16.0,30.00,WNW,284,0.0,1.0,83,0.00,,,0.00,VWS V14.00,2013-02-03 04:35:00,
2013-02-02 23:40:00,20.3,16.2,30.00,WNW,284,1.0,1.0,84,0.00,,,0.00,VWS V14.00,2013-02-03 04:40:00,
2013-02-02 23:45:00,20.3,16.2,30.00,WNW,284,0.0,0.0,84,0.00,,,0.00,VWS V14.00,2013-02-03 04:45:00,
2013-02-02 23:50:00,20.3,16.2,30.00,WNW,284,0.0,0.0,84,0.00,,,0.00,VWS V14.00,2013-02-03 04:50:00,
2013-02-02 23:55:00,20.3,16.2,30.00,WNW,284,0.0,0.0,84,0.00,,,0.00,VWS V14.00,2013-02-03 04:55:00,